Main page
METAR-TAF:

METAR-TAF

Airports :

Jordan Airport

Jordan, Montana, United States

latitude: 47-19-33N, longitude: 106-56-51W, elevation: 2660 ft

Current weather observation

The report was made 52 minutes ago, at 05:48 UTC
Calm wind
Temperature -2°F
Humidity 77%
Pressure 30.02 in. Hg

METAR: KJDN 080548Z AUTO 00000KT M19/M22 A3002 RMK AO1 SLP231 T11941217 11106 21200 51005

Time: 23:40 (06:40 UTC)


TAF: missing

Weather observations and forecasts of more than 4000 airports (METAR and TAF reports).

The available stations are represented by yellow and red dots on the map.

Hover mouse over dot to see the name of the station.

Then click to see weather observations and forecasts.

To change the map : click on the green buttons with a black cross to zoom in, on the green button with a dash to zoom out, or on the green arrows for adjacent maps.


METAR-TAF: